{"data":{"norad_id":55317,"intl_designator":"2023-010BA","name":"STARLINK-5265","alt_names":[],"object_type":"PAYLOAD","status":"ACTIVE","operator":null,"country":"US","launch_date":"2023-01-19","launch_site_code":"AFWTR","launch_vehicle":null,"mission":null,"orbit_class":"UNKNOWN","rcs_meters":null,"size_class":null,"mass_kg":null,"dimensions":null,"purposes":["comms"],"wikipedia_slug":null,"has_3d_model":false,"image_url":null,"decayed_at":null,"tle_current":{"epoch":"2026-09-20T22:00:03.000096Z","epoch_age_seconds":60685,"freshness":"FRESH","line1":"1 55317U 23010BA  26263.91670139  .00046401  00000+0  26257-2 0  9990","line2":"2 55317  70.0001 231.9835 0001938 242.3244  58.2522 15.12809500  5666","mean_motion":15.128095,"eccentricity":0.0001938,"inclination_deg":70.0001,"raan_deg":231.9835,"arg_perigee_deg":242.3244,"mean_anomaly_deg":58.2522,"bstar":0.0026257,"rev_number":566,"period_min":95.187133608032,"perigee_km":526.29841473169,"apogee_km":528.97509263862,"semimajor_km":6905.7737536852,"source":"CELESTRAK","updated_at":"2026-09-21T09:00:33.176638Z"}}}